Weather History for New Orleans, LA

Change the Weather History Date:

Monday, April 29, 2013

  Actual Average Record
Temperature  
Mean Temperature 72 °F -  
Max Temperature 82 °F 80 °F 90 °F (1999)
Min Temperature 62 °F 61 °F 45 °F (1973)
Cooling Degree Days 7    
Growing Degree Days 22 (Base 50)    
Moisture  
Dew Point 63 °F    
Average Humidity 75    
Maximum Humidity 93    
Minimum Humidity 51    
Precipitation  
Precipitation 0.00 in - - ()
Sea Level Pressure  
Sea Level Pressure 29.94 in    
Wind  
Wind Speed 5 mph (East)    
Max Wind Speed 16 mph    
Max Gust Speed 23 mph    
Visibility 10 miles    
Events Thunderstorm    
Averages and records for this station are not official NWS values.
T = Trace of Precipitation, MM = Missing Value Source: NWS Daily Summary

Daily Weather History Graph

Daily Weather History Graph

Search for Another Location

Airport:

Trip Planner

Search our weather history database for the weather conditions in past years. The results will help you decide how hot, cold, wet, or windy it might be!

Date:

Astronomy

Apr. 29, 2013 Rise Set
Actual Time 6:19 AM CDT 7:37 PM CDT
Civil Twilight 5:54 AM CDT 8:02 PM CDT
Nautical Twilight 5:24 AM CDT 8:32 PM CDT
Astronomical Twilight 4:53 AM CDT 9:03 PM CDT
Moon 11:56 PM CDT (4/29) 9:47 AM CDT (4/29)
Length of Visible Light 14h 08m
Length of Day
13h 17m
Waning Gibbous, 80% of the Moon is Illuminated
Apr 29
Waning Gibbous
May 2
Last Quarter
May 9
New
May 17
First Quarter
May 24
Full

Hourly Weather History & Observations

Time (CDT) Temp. Heat Index Dew Point Humidity Pressure Visibility Wind Dir Wind Speed Gust Speed Precip Events Conditions
12:53 AM 64.9 °F - 62.1 °F 90% 29.98 in 10.0 mi South 4.6 mph - N/A   Mostly Cloudy
1:53 AM 64.0 °F - 62.1 °F 93% 29.95 in 10.0 mi SSE 4.6 mph - N/A   Scattered Clouds
2:53 AM 64.0 °F - 61.0 °F 90% 29.94 in 10.0 mi Calm Calm - N/A   Scattered Clouds
3:53 AM 63.0 °F - 60.1 °F 90% 29.94 in 10.0 mi Calm Calm - N/A   Partly Cloudy
4:53 AM 63.0 °F - 61.0 °F 93% 29.94 in 10.0 mi North 3.5 mph - N/A   Scattered Clouds
5:53 AM 62.1 °F - 60.1 °F 93% 29.94 in 8.0 mi Calm Calm - N/A   Mostly Cloudy
6:53 AM 66.0 °F - 62.1 °F 87% 29.96 in 10.0 mi ENE 3.5 mph 183.0 mph N/A   Scattered Clouds
7:53 AM 70.0 °F - 64.0 °F 81% 29.98 in 10.0 mi NE 6.9 mph - N/A   Scattered Clouds
8:53 AM 71.1 °F - 64.0 °F 78% 29.99 in 10.0 mi NE 9.2 mph - N/A   Scattered Clouds
9:53 AM 73.0 °F - 64.0 °F 73% 29.99 in 10.0 mi ENE 5.8 mph - N/A   Scattered Clouds
10:53 AM 75.9 °F - 64.9 °F 69% 30.00 in 10.0 mi NNE 9.2 mph - N/A   Scattered Clouds
11:53 AM 78.1 °F - 64.9 °F 64% 29.99 in 10.0 mi NE 8.1 mph - N/A   Scattered Clouds
12:53 PM 79.0 °F - 66.0 °F 64% 29.97 in 10.0 mi NE 9.2 mph - N/A   Scattered Clouds
1:53 PM 80.1 °F 82.1 °F 66.0 °F 62% 29.96 in 10.0 mi NE 9.2 mph - N/A   Mostly Cloudy
2:53 PM 81.0 °F 82.2 °F 63.0 °F 54% 29.94 in 10.0 mi NNE 9.2 mph - N/A   Mostly Cloudy
3:44 PM 80.6 °F 81.8 °F 62.6 °F 54% 29.91 in 10.0 mi NE 11.5 mph - N/A Thunderstorm Thunderstorm
3:53 PM 81.0 °F 81.9 °F 62.1 °F 52% 29.92 in 10.0 mi ENE 9.2 mph - N/A Thunderstorm Thunderstorm
4:09 PM 82.4 °F 83.4 °F 62.6 °F 51% 29.91 in 10.0 mi NE 5.8 mph - N/A Thunderstorm Thunderstorm
4:29 PM 73.4 °F - 60.8 °F 65% 29.92 in 10.0 mi SE 16.1 mph 23.0 mph N/A Thunderstorm Thunderstorm
4:53 PM 72.0 °F - 59.0 °F 64% 29.93 in 10.0 mi East 10.4 mph 20.7 mph N/A Thunderstorm Thunderstorm
5:28 PM 75.2 °F - 60.8 °F 61% 29.90 in 10.0 mi SE 6.9 mph - N/A   Mostly Cloudy
5:53 PM 73.9 °F - 63.0 °F 68% 29.90 in 10.0 mi South 5.8 mph - N/A   Mostly Cloudy
6:53 PM 75.0 °F - 64.0 °F 69% 29.89 in 10.0 mi ESE 6.9 mph - N/A   Scattered Clouds
7:53 PM 72.0 °F - 66.9 °F 84% 29.89 in 10.0 mi South 4.6 mph - N/A   Scattered Clouds
8:53 PM 72.0 °F - 66.9 °F 84% 29.91 in 10.0 mi SE 3.5 mph - N/A   Scattered Clouds
9:53 PM 71.1 °F - 66.9 °F 87% 29.93 in 9.0 mi ESE 4.6 mph - N/A   Partly Cloudy
10:53 PM 71.6 °F - 68.0 °F 88% 29.93 in 8.0 mi ESE 4.6 mph - N/A   Scattered Clouds
11:53 PM 70.0 °F - 66.9 °F 90% 29.92 in 7.0 mi SE 3.5 mph - N/A   Scattered Clouds